Theta_e
293 294 297 301 304 312 325 325 325 323 323 325 328 328 329 328 326 325 324 322 321 319 318 316 315 315 315
292 295 295 297 299 304 319 325 324 324 323 324 326 327 328 328 327 325 325 323 321 320 318 317 316 316 315
292 293 294 295 299 301 306 324 324 324 323 324 325 326 327 328 327 326 325 324 322 320 319 318 317 316 316
291 293 294 295 296 301 305 312 324 324 323 324 325 325 326 326 327 327 326 325 323 321 320 319 318 317 316
291 292 293 294 297 298 300 303 322 323 323 322 323 324 325 326 327 327 327 326 324 323 320 319 319 318 317
289 291 292 293 292 296 298 300 309 322 322 322 322 322 323 324 324 326 326 325 325 323 322 321 320 319 319
289 290 291 292 292 292 295 297 301 303 311 321 321 322 322 323 324 326 326 324 324 323 322 322 321 321 320
288 289 290 291 291 292 292 294 296 299 303 318 318 320 321 322 323 325 325 324 323 322 322 322 322 321 321
287 287 288 289 290 291 291 292 296 300 302 317 317 319 319 320 320 323 320 320 322 320 320 322 323 321 322
287 288 288 289 290 291 292 293 293 297 304 308 315 316 310 317 318 318 320 321 322 321 320 320 322 322 321
288 289 289 289 290 291 293 293 293 295 299 300 305 307 314 307 315 316 317 316 319 320 319 320 321 322 319
289 290 290 291 290 291 293 294 294 295 296 299 302 303 302 299 305 313 315 316 316 316 318 320 321 322 322
290 290 291 292 292 291 291 292 293 295 297 298 299 300 302 305 300 307 310 313 314 315 315 317 319 319 318
290 290 290 290 289 289 290 291 292 293 294 296 300 303 304 306 306 304 310 308 311 313 314 315 316 318 318
289 289 289 289 289 289 289 290 292 293 294 295 296 299 302 303 305 306 305 308 310 310 310 309 311 314 315
285 287 288 290 289 289 289 289 290 291 293 294 297 299 301 302 305 305 304 305 307 307 307 305 303 307 310
284 284 285 287 288 289 289 289 290 290 292 294 296 300 300 303 302 303 303 303 302 300 304 304 303 300 305
Wind_Speed
28 28 31 27 27 20 47 52 48 55 55 57 56 61 58 58 54 49 47 45 42 39 38 38 36 32 31
27 25 23 26 30 31 27 45 45 51 53 56 59 61 63 64 58 54 50 48 45 42 40 39 38 35 33
22 24 23 22 24 29 27 39 44 49 59 59 59 61 59 55 55 57 56 51 48 45 43 40 40 38 34
20 23 20 17 19 20 25 21 39 44 52 60 58 59 60 60 61 60 59 54 49 47 44 42 41 40 36
19 19 18 15 12 13 20 27 30 38 39 41 45 50 55 60 61 60 58 56 51 50 49 45 44 42 39
21 17 19 17 8 12 16 20 8 30 37 34 39 38 43 50 52 59 54 53 54 55 53 48 48 43 41
24 23 20 17 11 11 11 19 15 26 15 24 35 34 38 43 49 56 51 51 60 55 52 52 49 46 44
24 22 21 17 9 11 14 21 29 26 22 6 26 28 33 37 49 54 54 54 52 50 53 54 49 49 47
28 28 26 25 23 20 19 11 10 17 24 9 17 24 29 33 42 55 58 57 52 51 50 50 52 51 49
24 24 24 26 22 26 21 13 11 10 10 8 15 20 6 25 31 41 47 50 52 49 49 51 53 52 48
22 22 22 22 21 20 21 21 19 22 28 18 10 11 9 7 23 35 43 42 49 50 51 51 51 51 45
21 22 22 20 19 18 20 24 27 34 30 18 12 16 14 3 7 28 37 38 45 43 49 50 49 49 49
19 17 17 18 19 20 22 23 27 28 34 29 24 29 25 13 8 20 27 34 41 39 41 46 48 48 45
18 17 18 21 23 23 22 22 23 26 36 31 24 26 25 22 19 18 27 20 39 39 41 42 45 50 51
21 20 20 22 22 23 23 20 20 21 19 27 28 30 35 31 23 21 23 29 39 37 37 35 40 49 50
16 16 17 17 20 21 21 22 23 23 22 21 22 24 24 26 33 22 25 26 34 40 36 30 32 45 50
16 16 18 20 23 20 21 24 25 26 24 19 21 20 10 11 13 25 27 27 30 30 35 33 30 42 50
Wind_Direction
284 298 310 303 311 338 215 213 219 220 222 220 216 210 208 209 206 207 206 207 208 206 208 210 210 208 209
287 292 287 310 308 299 248 206 210 217 223 225 220 217 218 210 206 208 208 209 208 207 208 210 212 208 207
280 285 294 301 311 305 324 206 213 216 220 225 223 219 218 216 211 210 210 210 210 210 209 212 213 213 211
275 280 287 292 302 313 318 329 209 204 214 216 221 223 219 217 217 210 210 213 210 213 213 215 215 213 213
282 283 283 297 305 329 315 308 230 200 203 207 208 214 218 219 218 215 213 216 210 214 215 216 218 216 215
266 273 284 291 307 304 328 313 308 195 191 201 200 200 203 209 210 212 209 211 208 213 216 217 219 218 219
260 265 275 280 293 296 300 294 291 295 289 190 194 200 201 207 210 208 212 210 207 212 218 219 220 220 222
260 261 261 267 279 289 280 298 294 295 296 221 189 204 199 202 210 211 210 205 205 211 219 222 222 223 224
258 260 262 263 262 267 262 265 292 298 299 281 186 193 194 198 205 212 211 210 215 215 219 222 224 224 224
254 260 262 263 260 253 256 249 265 294 290 226 164 168 165 192 203 212 217 219 220 221 222 223 223 221 222
247 253 251 247 248 248 240 236 241 246 249 327 313 286 153 147 179 199 202 208 214 216 221 220 221 219 211
235 240 245 245 248 249 245 239 242 246 262 265 272 292 324 188 156 185 196 202 205 207 212 216 220 219 220
236 246 246 249 253 250 256 257 258 256 259 255 254 268 269 251 187 175 180 193 199 199 203 208 211 209 205
250 250 248 251 250 255 251 252 252 253 254 255 252 259 248 270 238 182 185 180 193 196 200 203 206 209 208
250 247 244 243 244 245 247 252 251 257 260 254 245 243 253 260 254 225 191 190 199 192 190 193 202 209 210
271 268 261 248 237 230 236 243 244 243 240 238 228 220 225 234 235 212 201 196 187 193 194 190 194 206 211
266 262 260 259 249 244 226 226 241 246 245 231 218 199 204 222 205 213 201 194 179 179 189 193 197 200 208